Location: Peebles
(55.6412°N, 3.1714°W)
Time: 20:14:52
(UTC+01:00)

Vanguard 2 - All Passes

Search period start: 02 October 2022 00:00
Search period end: 12 October 2022 00:00
Orbit: 552 x 2935 km, 32.9° (Epoch: 02 October)

Date Brightness Start Highest point End Pass type
(mag) Time Alt. Az. Time Alt. Az. Time Alt. Az.
02 Oct - 13:43:10 10° S 13:51:07 19° SSE 14:00:46 10° ESE daylight
02 Oct - 15:48:05 10° SW 15:59:20 29° S 16:12:58 10° ESE daylight
02 Oct - 17:56:13 10° WSW 18:08:35 28° SSW 18:22:04 10° SE daylight
02 Oct - 20:07:49 10° WSW 20:17:22 18° SW 20:26:52 10° S visible
03 Oct - 13:58:56 10° SSW 14:07:30 22° SSE 14:18:13 10° ESE daylight
03 Oct - 16:04:42 10° SW 16:15:58 30° S 16:29:40 10° SE daylight
03 Oct - 18:13:21 10° WSW 18:25:10 26° SSW 18:38:03 10° SSE daylight
03 Oct - 20:26:38 10° WSW 20:33:41 14° SW 20:40:44 10° SSW visible
04 Oct - 12:15:04 10° SE 12:16:50 10° SE 12:18:43 10° SE daylight
04 Oct - 14:15:02 10° SSW 14:23:57 24° SSE 14:35:23 10° ESE daylight
04 Oct - 16:21:27 10° SW 16:32:37 29° S 16:46:11 10° SE daylight
04 Oct - 18:30:42 10° WSW 18:41:43 23° SSW 18:53:42 10° SSE daylight
05 Oct - 12:28:24 10° SSE 12:33:04 13° SE 12:38:31 10° ESE daylight
05 Oct - 14:31:21 10° SSW 14:40:29 25° SSE 14:52:22 10° ESE daylight
05 Oct - 16:38:20 10° WSW 16:49:15 28° S 17:02:31 10° SE daylight
05 Oct - 18:48:22 10° WSW 18:58:14 20° SSW 19:08:52 10° S visible
06 Oct - 12:43:34 10° S 12:49:24 16° SSE 12:56:34 10° ESE daylight
06 Oct - 14:47:51 10° SW 14:57:05 26° S 15:09:09 10° ESE daylight
06 Oct - 16:55:23 10° WSW 17:05:55 26° SSW 17:18:37 10° SE daylight
06 Oct - 19:06:35 10° WSW 19:14:42 16° SSW 19:23:21 10° S visible
07 Oct - 12:59:20 10° S 13:05:48 18° SSE 13:14:04 10° ESE daylight
07 Oct - 15:04:32 10° SW 15:13:44 26° S 15:25:47 10° SE daylight
07 Oct - 17:12:37 10° WSW 17:22:34 23° SSW 17:34:25 10° SSE daylight
07 Oct - 19:26:09 10° SW 19:31:07 12° SW 19:36:18 10° SSW visible
08 Oct - 13:15:27 10° SSW 13:22:18 20° SSE 13:31:15 10° ESE daylight
08 Oct - 15:21:21 10° SW 15:30:24 26° S 15:42:13 10° SE daylight
08 Oct - 17:30:07 10° WSW 17:39:12 20° SSW 17:49:48 10° SSE daylight
09 Oct - 13:31:49 10° SSW 13:38:51 21° SSE 13:48:12 10° ESE daylight
09 Oct - 15:38:19 10° SW 15:47:06 24° S 15:58:26 10° SE daylight
09 Oct - 17:48:04 10° WSW 17:55:47 16° SSW 18:04:35 10° S daylight
10 Oct - 11:45:05 10° SSE 11:48:18 12° SSE 11:51:59 10° SE daylight
10 Oct - 13:48:23 10° SW 13:55:28 22° S 14:04:57 10° SE daylight
10 Oct - 15:55:29 10° SW 16:03:48 22° S 16:14:21 10° SSE daylight
10 Oct - 18:06:59 10° SW 18:12:22 13° SSW 18:18:14 10° S daylight
11 Oct - 12:00:37 10° S 12:04:45 14° SSE 12:09:47 10° SE daylight
11 Oct - 14:05:08 10° SW 14:12:09 22° S 14:21:30 10° SE daylight
11 Oct - 16:12:54 10° SW 16:20:31 19° SSW 16:29:54 10° SSE daylight
